GW2217 Weather Reports


time (UTC)temp
F
wind
direction
speed
knots
gust
knots
rain 1hr
in
rain 24hr
in
rain mn
in
humidity
%
barometer
mb
20260503224720 75 161 0.9 9.6 0.00 0.00 0.00 41 1037.8
20260503224220 75 149 0.0 9.6 0.00 0.00 0.00 44 1038.4
20260503223720 76 157 0.0 9.6 0.00 0.00 0.00 44 1038.5
20260503223220 76 164 0.9 9.6 0.00 0.00 0.00 41 1038.3
20260503222720 77 160 0.0 9.6 0.00 0.00 0.00 44 1038.4
20260503222220 77 155 0.0 9.6 0.00 0.00 0.00 43 1038.4
20260503221205 77 211 0.0 9.6 0.00 0.00 0.00 44 1038.7
20260503220705 77 150 0.0 9.6 0.00 0.00 0.00 43 1038.7
20260503220205 77 157 0.0 9.6 0.00 0.00 0.00 46 1038.9
20260503215705 77 161 0.0 9.6 0.00 0.00 0.00 45 1039.0
20260503215205 77 181 0.0 9.6 0.00 0.00 0.00 46 1038.8
20260503214704 77 173 0.0 9.6 0.00 0.00 0.00 47 1039.0
20260503214205 77 172 0.9 9.6 0.00 0.00 0.00 46 1039.0
20260503213704 77 177 0.0 9.6 0.00 0.00 0.00 46 1039.1
20260503213204 77 181 0.0 9.6 0.00 0.00 0.00 47 1039.2
20260503212704 77 174 0.9 9.6 0.00 0.00 0.00 44 1039.1
20260503212203 77 134 0.0 9.6 0.00 0.00 0.00 47 1039.0
20260503211703 76 134 0.0 9.6 0.00 0.00 0.00 49 1039.4
20260503211204 76 132 0.0 9.6 0.00 0.00 0.00 48 1039.2
20260503210148 76 206 0.0 9.6 0.00 0.00 0.00 47 1039.4
20260503205648 76 158 0.9 9.6 0.00 0.00 0.00 47 1039.7
20260503205148 76 226 0.0 9.6 0.00 0.00 0.00 50 1039.6
20260503204131 75 178 0.0 9.6 0.00 0.00 0.00 50 1039.7
20260503203631 75 182 0.9 9.6 0.00 0.00 0.00 44 1039.7
20260503203130 75 204 0.9 9.6 0.00 0.00 0.00 48 1039.7
20260503202631 75 168 0.0 9.6 0.00 0.00 0.00 50 1039.6
20260503202130 75 113 0.9 9.6 0.00 0.00 0.00 51 1039.9
20260503201629 75 198 0.9 9.6 0.00 0.00 0.00 50 1040.2
20260503201130 75 169 0.0 9.6 0.00 0.00 0.00 50 1039.9
20260503200629 74 171 0.0 9.6 0.00 0.00 0.00 51 1040.0
20260503200128 74 184 0.0 9.6 0.00 0.00 0.00 50 1040.1
20260503195113 74 241 0.0 9.6 0.00 0.00 0.00 53 1040.3
20260503194613 73 244 0.0 9.6 0.00 0.00 0.00 54 1040.2
20260503194112 73 245 0.0 9.6 0.00 0.00 0.00 54 1040.3
20260503193611 73 245 0.0 9.6 0.00 0.00 0.00 55 1040.3
20260503193110 72 244 0.0 9.6 0.00 0.00 0.00 56 1040.1
20260503192609 72 247 0.0 9.6 0.00 0.00 0.00 54 1040.0
20260503192109 71 242 0.0 9.6 0.00 0.00 0.00 55 1040.2
20260503191609 70 165 0.0 9.6 0.00 0.00 0.00 55 1040.0
20260503191110 70 165 0.0 9.6 0.00 0.00 0.00 56 1040.1
20260503190055 70 177 0.0 9.6 0.00 0.00 0.00 57 1040.2
20260503185554 70 176 0.0 9.6 0.00 0.00 0.00 59 1040.4
20260503185055 70 175 0.0 9.6 0.00 0.00 0.00 58 1040.2
20260503184555 70 167 0.0 9.6 0.00 0.00 0.00 56 1040.2
20260503184053 69 162 0.9 9.6 0.00 0.00 0.00 55 1040.4
20260503183553 69 143 0.0 9.6 0.00 0.00 0.00 57 1040.1
20260503183053 69 143 0.0 9.6 0.00 0.00 0.00 57 1040.4
20260503182553 69 146 0.0 9.6 0.00 0.00 0.00 56 1040.5
20260503182053 70 145 0.0 9.6 0.00 0.00 0.00 57 1040.6
20260503181553 70 136 0.0 9.6 0.00 0.00 0.00 56 1040.6
20260503181053 70 114 0.0 9.6 0.00 0.00 0.00 57 1040.7
20260503180551 70 111 0.0 9.6 0.00 0.00 0.00 54 1040.7
20260503180051 71 180 0.0 9.6 0.00 0.00 0.00 57 1040.8
20260503175035 71 180 0.0 9.6 0.00 0.00 0.00 54 1041.0
20260503174534 71 156 0.0 9.6 0.00 0.00 0.00 56 1040.7
20260503173518 71 147 0.0 9.6 0.00 0.00 0.00 56 1040.7
20260503172504 71 241 0.0 9.6 0.00 0.00 0.00 56 1041.0
20260503172004 71 98 0.0 9.6 0.00 0.00 0.00 57 1040.8
20260503171504 70 166 0.0 9.6 0.00 0.00 0.00 56 1041.0
20260503171002 70 108 0.0 9.6 0.00 0.00 0.00 58 1041.0
20260503170502 70 169 0.9 9.6 0.00 0.00 0.00 56 1040.8
20260503150806 64 233 0.0 9.6 0.00 0.00 0.00 69 1041.4
20260503150306 63 208 0.0 9.6 0.00 0.00 0.00 72 1041.8
20260503140228 57 92 0.0 9.6 0.00 0.00 0.00 81 1040.8
20260503131154 57 91 0.0 9.6 0.00 0.00 0.00 78 1040.7
20260503130654 58 91 0.0 9.6 0.00 0.00 0.00 78 1040.5
20260503130153 58 91 0.0 9.6 0.00 0.00 0.00 78 1040.6
20260503110444 59 191 0.0 9.6 0.00 0.00 0.00 71 1041.0
20260503090332 61 155 0.0 9.6 0.00 0.00 0.00 61 1040.7
20260503081245 61 121 0.0 9.6 0.00 0.00 0.00 56 1040.6
20260503080745 62 121 0.0 9.6 0.00 0.00 0.00 56 1040.5
20260503080244 62 121 0.0 9.6 0.00 0.00 0.00 58 1040.9
20260503072725 62 121 0.0 9.6 0.00 0.00 0.00 57 1040.4
20260503072224 62 121 0.0 9.6 0.00 0.00 0.00 58 1040.6
20260503071723 62 121 0.0 9.6 0.00 0.00 0.00 58 1040.5
20260503071222 62 121 0.0 9.6 0.00 0.00 0.00 58 1040.4
20260503070721 62 121 0.0 9.6 0.00 0.00 0.00 59 1041.0
20260503070220 61 121 0.0 9.6 0.00 0.00 0.00 59 1040.6
20260503060158 61 121 0.0 9.6 0.00 0.00 0.00 67 1040.2
20260503054656 61 121 0.0 9.6 0.00 0.00 0.00 67 1040.5
20260503054156 61 121 0.0 9.6 0.00 0.00 0.00 67 1040.6
20260503053656 61 121 0.0 9.6 0.00 0.00 0.00 67 1040.0
20260503053155 61 121 0.0 9.6 0.00 0.00 0.00 66 1040.4
20260503052654 61 121 0.0 9.6 0.00 0.00 0.00 66 1040.4
20260503052154 62 121 0.0 9.6 0.00 0.00 0.00 66 1040.4
20260503051654 62 121 0.0 9.6 0.00 0.00 0.00 66 1040.5
20260503051153 62 121 0.0 9.6 0.00 0.00 0.00 66 1040.6
20260503050653 62 121 0.0 9.6 0.00 0.00 0.00 66 1040.6
20260503050153 62 121 0.0 9.6 0.00 0.00 0.00 66 1040.5
20260503045138 62 121 0.0 9.6 0.00 0.00 0.00 67 1040.4
20260503044638 62 121 0.0 9.6 0.00 0.00 0.00 66 1040.2
20260503044137 62 121 0.0 9.6 0.00 0.00 0.00 65 1040.1
20260503043636 62 121 0.0 9.6 0.00 0.00 0.00 64 1040.4
20260503043135 62 121 0.0 9.6 0.00 0.00 0.00 64 1040.4
20260503042635 62 121 0.0 9.6 0.00 0.00 0.00 64 1040.4
20260503042134 63 121 0.0 9.6 0.00 0.00 0.00 63 1040.2
20260503041633 63 121 0.0 9.6 0.00 0.00 0.00 63 1040.1
20260503041133 63 121 0.0 9.6 0.00 0.00 0.00 62 1040.3
20260503040632 63 121 0.0 9.6 0.00 0.00 0.00 62 1040.2
20260503040132 63 121 0.0 9.6 0.00 0.00 0.00 63 1039.9
20260503035631 63 121 0.0 9.6 0.00 0.00 0.00 62 1040.1
20260503035130 63 121 0.0 9.6 0.00 0.00 0.00 61 1039.9
20260503034629 64 121 0.0 9.6 0.00 0.00 0.00 60 1039.8
20260503033614 64 121 0.0 9.6 0.00 0.00 0.00 58 1039.9
20260503032557 65 121 0.0 9.6 0.00 0.00 0.00 56 1039.6
20260503032056 65 121 0.0 9.6 0.00 0.00 0.00 56 1039.7
20260503031555 65 121 0.0 9.6 0.00 0.00 0.00 57 1039.4
20260503031054 66 121 0.0 9.6 0.00 0.00 0.00 58 1039.6
20260503030554 66 121 0.0 9.6 0.00 0.00 0.00 58 1039.5
20260503030054 66 121 0.0 9.6 0.00 0.00 0.00 57 1039.5
20260503025553 66 121 0.0 9.6 0.00 0.00 0.00 56 1039.7
20260503025052 67 121 0.0 9.6 0.00 0.00 0.00 56 1039.5
20260503024552 67 121 0.0 9.6 0.00 0.00 0.00 56 1039.8
20260503024051 67 121 0.0 9.6 0.00 0.00 0.00 56 1039.6
20260503023551 67 121 0.0 9.6 0.00 0.00 0.00 56 1039.9
20260503023051 67 121 0.0 9.6 0.00 0.00 0.00 55 1039.5
20260503022550 67 121 0.0 9.6 0.00 0.00 0.00 54 1039.5
20260503021534 68 121 0.0 9.6 0.00 0.00 0.00 56 1039.6
20260503020004 68 121 0.0 9.6 0.00 0.00 0.00 54 1039.4
20260503014949 68 121 0.0 9.6 0.00 0.00 0.00 56 1039.3
20260503014449 68 121 0.0 9.6 0.00 0.00 0.00 56 1039.8
20260503013949 68 121 0.0 9.6 0.00 0.00 0.00 55 1039.7
20260503013448 68 121 0.0 9.6 0.00 0.00 0.00 55 1039.7
20260503012948 68 121 0.0 9.6 0.00 0.00 0.00 55 1039.6
20260503012448 68 121 0.0 9.6 0.00 0.00 0.00 56 1039.8
20260503011947 68 111 0.0 9.6 0.00 0.00 0.00 55 1039.9
20260503011446 69 111 0.0 9.6 0.00 0.00 0.00 56 1040.0
20260503010946 69 111 0.0 9.6 0.00 0.00 0.00 54 1039.9
20260503005930 69 158 0.0 9.6 0.00 0.00 0.00 51 1040.1
20260503005430 69 156 0.0 9.6 0.00 0.00 0.00 54 1040.1
20260503004929 70 154 0.0 9.6 0.00 0.00 0.00 53 1040.5
20260503004428 70 154 0.0 9.6 0.00 0.00 0.00 54 1040.1
20260503003927 70 154 0.0 9.6 0.00 0.00 0.00 53 1040.4
20260503003427 70 153 0.0 9.6 0.00 0.00 0.00 51 1040.1
20260503002926 70 145 0.0 9.6 0.00 0.00 0.00 50 1040.3
20260503002425 70 151 0.0 9.6 0.00 0.00 0.00 55 1040.4
20260503000854 70 150 0.0 9.6 0.00 0.00 0.00 53 1040.4
20260503000353 70 144 0.0 9.6 0.00 0.00 0.00 49 1040.7
20260502235853 70 8 0.9 9.6 0.00 0.00 0.00 54 1040.6
20260502235353 70 73 0.0 9.6 0.00 0.00 0.00 54 1040.6
20260502234853 71 67 0.0 9.6 0.00 0.00 0.00 53 1040.7
20260502233838 71 160 0.0 9.6 0.00 0.00 0.00 52 1040.8
20260502233337 71 155 0.0 9.6 0.00 0.00 0.00 52 1040.9
20260502232837 71 150 0.0 9.6 0.00 0.00 0.00 53 1040.9
20260502232336 71 150 0.0 9.6 0.00 0.00 0.00 50 1040.8
20260502231836 71 140 0.0 9.6 0.00 0.00 0.00 51 1040.8
20260502231336 71 123 0.9 9.6 0.00 0.00 0.00 49 1041.4
20260502230835 71 139 0.9 9.6 0.00 0.00 0.00 50 1040.9
20260502230335 71 163 0.0 9.6 0.00 0.00 0.00 51 1041.2
20260502225834 71 163 0.0 9.6 0.00 0.00 0.00 53 1041.2
20260502225334 71 239 0.0 9.6 0.00 0.00 0.00 56 1041.3